• In Latvia
  • List of Countries
  • For 7 days
  • Water Temperature
  • Satellite Maps
  • Weather Map
  • Weather Widgets
  • user-avatar
    Login

    Hourly Weather Gori

    Today, 20 June, Wednesday

    Time Temperature Precipitation Wind Pressure Humidity
    00:00 +18°C° 0 mm 1 mps 699 mmHg 85%
    01:00 +16°C° 0 mm 1 mps 699 mmHg 85%
    02:00 +16°C° 0 mm 1 mps 699 mmHg 84%
    03:00 +16°C° 0 mm 1 mps 699 mmHg 84%
    04:00 +18°C° 0 mm 1 mps 699 mmHg 81%
    05:00 +18°C° 0 mm 1 mps 699 mmHg 78%
    06:00 +19°C° 0 mm 1 mps 700 mmHg 75%
    07:00 +21°C° 0 mm 1 mps 700 mmHg 68%
    08:00 +21°C° 0 mm 2 mps 700 mmHg 61%
    09:00 +24°C° 0 mm 2 mps 700 mmHg 55%
    10:00 +25°C° 0.1 mm 2 mps 700 mmHg 52%
    11:00 +26°C° 0.1 mm 2 mps 700 mmHg 50%
    12:00 +28°C° 0.1 mm 2 mps 700 mmHg 48%
    13:00 +28°C° 0.5 mm 2 mps 700 mmHg 49%
    14:00 +28°C° 0.5 mm 2 mps 700 mmHg 49%
    15:00 +28°C° 0.5 mm 2 mps 700 mmHg 50%
    16:00 +27°C° 0.6 mm 2 mps 700 mmHg 54%
    17:00 +26°C° 0.6 mm 1 mps 700 mmHg 57%
    18:00 +26°C° 0.6 mm 1 mps 701 mmHg 61%
    19:00 +24°C° 0.1 mm 1 mps 701 mmHg 67%
    20:00 +22°C° 0.1 mm 1 mps 701 mmHg 73%
    21:00 +20°C° 0.1 mm 1 mps 701 mmHg 79%
    22:00 +19°C° 0 mm 1 mps 701 mmHg 81%
    23:00 +19°C° 0 mm 1 mps 701 mmHg 82%

    Tomorrow, 21 June, Thursday

    Time Temperature Precipitation Wind Pressure Humidity
    00:00 +18°C° 0 mm 1 mps 701 mmHg 83%
    01:00 +18°C° 0 mm 1 mps 701 mmHg 83%
    02:00 +16°C° 0 mm 1 mps 701 mmHg 82%
    03:00 +16°C° 0 mm 1 mps 701 mmHg 81%
    04:00 +18°C° 0 mm 1 mps 701 mmHg 78%
    05:00 +19°C° 0 mm 1 mps 701 mmHg 75%
    06:00 +20°C° 0 mm 1 mps 701 mmHg 72%
    07:00 +22°C° 0 mm 1 mps 701 mmHg 65%
    08:00 +24°C° 0 mm 2 mps 701 mmHg 59%
    09:00 +26°C° 0 mm 2 mps 701 mmHg 52%
    10:00 +27°C° 0 mm 2 mps 701 mmHg 49%
    11:00 +29°C° 0 mm 3 mps 701 mmHg 46%
    12:00 +30°C° 0 mm 3 mps 701 mmHg 43%
    13:00 +30°C° 0.1 mm 3 mps 701 mmHg 42%
    14:00 +31°C° 0.1 mm 3 mps 701 mmHg 41%
    15:00 +31°C° 0.1 mm 3 mps 700 mmHg 41%
    16:00 +30°C° 0.1 mm 3 mps 700 mmHg 44%
    17:00 +30°C° 0.1 mm 3 mps 700 mmHg 47%
    18:00 +29°C° 0.1 mm 3 mps 700 mmHg 50%
    19:00 +26°C° 0 mm 2 mps 700 mmHg 56%
    20:00 +24°C° 0 mm 2 mps 700 mmHg 62%
    21:00 +20°C° 0 mm 2 mps 700 mmHg 68%
    22:00 +20°C° 0 mm 2 mps 700 mmHg 68%
    23:00 +19°C° 0 mm 2 mps 700 mmHg 69%

    Day after tomorrow, 22 June, Friday

    Time Temperature Precipitation Wind Pressure Humidity
    00:00 +18°C° 0 mm 2 mps 700 mmHg 69%
    01:00 +18°C° 0 mm 2 mps 699 mmHg 70%
    02:00 +18°C° 0 mm 2 mps 699 mmHg 71%
    03:00 +17°C° 0 mm 2 mps 699 mmHg 72%
    04:00 +18°C° 0 mm 2 mps 699 mmHg 69%
    05:00 +19°C° 0 mm 2 mps 699 mmHg 66%
    06:00 +20°C° 0 mm 2 mps 699 mmHg 63%
    07:00 +22°C° 0 mm 3 mps 699 mmHg 58%
    08:00 +25°C° 0 mm 3 mps 699 mmHg 52%
    09:00 +27°C° 0 mm 4 mps 699 mmHg 46%
    10:00 +28°C° 0.1 mm 4 mps 698 mmHg 44%
    11:00 +29°C° 0.1 mm 5 mps 698 mmHg 41%
    12:00 +30°C° 0.1 mm 5 mps 698 mmHg 39%
    13:00 +30°C° 0.2 mm 5 mps 698 mmHg 38%
    14:00 +32°C° 0.2 mm 5 mps 697 mmHg 38%
    15:00 +32°C° 0.2 mm 5 mps 697 mmHg 37%
    16:00 +30°C° 0.1 mm 4 mps 697 mmHg 39%
    17:00 +29°C° 0.1 mm 4 mps 697 mmHg 42%
    18:00 +29°C° 0.1 mm 4 mps 697 mmHg 44%
    19:00 +26°C° 0 mm 3 mps 697 mmHg 49%
    20:00 +24°C° 0 mm 2 mps 697 mmHg 53%
    21:00 +21°C° 0 mm 1 mps 697 mmHg 58%
    22:00 +21°C° 0 mm 1 mps 697 mmHg 56%
    23:00 +20°C° 0 mm 1 mps 697 mmHg 55%

    23 June, Saturday

    Time Temperature Precipitation Wind Pressure Humidity
    00:00 +20°C° 0 mm 1 mps 697 mmHg 54%
    01:00 +20°C° 0 mm 1 mps 697 mmHg 54%
    02:00 +19°C° 0 mm 1 mps 697 mmHg 54%
    03:00 +19°C° 0 mm 1 mps 696 mmHg 54%
    04:00 +19°C° 0 mm 1 mps 697 mmHg 54%
    05:00 +20°C° 0 mm 1 mps 697 mmHg 53%
    06:00 +21°C° 0 mm 1 mps 697 mmHg 53%
    07:00 +23°C° 0 mm 1 mps 697 mmHg 48%
    08:00 +25°C° 0 mm 2 mps 697 mmHg 43%
    09:00 +27°C° 0 mm 2 mps 697 mmHg 38%
    10:00 +28°C° 0 mm 2 mps 697 mmHg 37%
    11:00 +29°C° 0 mm 2 mps 697 mmHg 36%
    12:00 +30°C° 0 mm 3 mps 697 mmHg 35%
    13:00 +30°C° 0.1 mm 2 mps 697 mmHg 37%
    14:00 +30°C° 0.1 mm 2 mps 697 mmHg 38%
    15:00 +30°C° 0.1 mm 2 mps 697 mmHg 40%
    16:00 +28°C° 0.1 mm 2 mps 697 mmHg 45%
    17:00 +27°C° 0.1 mm 2 mps 697 mmHg 51%
    18:00 +26°C° 0.1 mm 2 mps 697 mmHg 56%
    19:00 +24°C° 0 mm 2 mps 697 mmHg 62%
    20:00 +23°C° 0 mm 2 mps 698 mmHg 69%
    21:00 +20°C° 0 mm 2 mps 698 mmHg 76%
    22:00 +20°C° 0 mm 1 mps 698 mmHg 77%
    23:00 +20°C° 0 mm 1 mps 698 mmHg 78%

    24 June, Sunday

    Time Temperature Precipitation Wind Pressure Humidity
    00:00 +19°C° 0 mm 1 mps 698 mmHg 79%
    01:00 +19°C° 0 mm 1 mps 698 mmHg 79%
    02:00 +19°C° 0 mm 1 mps 698 mmHg 79%
    03:00 +18°C° 0 mm 1 mps 698 mmHg 79%
    04:00 +19°C° 0 mm 1 mps 698 mmHg 76%
    05:00 +20°C° 0 mm 1 mps 699 mmHg 73%
    06:00 +21°C° 0 mm 1 mps 699 mmHg 70%
    07:00 +23°C° 0 mm 2 mps 699 mmHg 64%
    08:00 +25°C° 0 mm 2 mps 700 mmHg 58%
    09:00 +27°C° 0 mm 2 mps 700 mmHg 51%
    10:00 +29°C° 0.1 mm 2 mps 700 mmHg 48%
    11:00 +30°C° 0.1 mm 2 mps 700 mmHg 44%
    12:00 +31°C° 0.1 mm 2 mps 700 mmHg 41%
    13:00 +31°C° 0.1 mm 3 mps 700 mmHg 41%
    14:00 +33°C° 0.1 mm 3 mps 700 mmHg 42%
    15:00 +33°C° 0.1 mm 3 mps 700 mmHg 42%
    16:00 +31°C° 0.2 mm 3 mps 700 mmHg 48%
    17:00 +29°C° 0.2 mm 3 mps 700 mmHg 55%
    18:00 +28°C° 0.2 mm 3 mps 700 mmHg 61%
    19:00 +26°C° 0.1 mm 2 mps 700 mmHg 69%
    20:00 +24°C° 0.1 mm 2 mps 700 mmHg 77%
    21:00 +21°C° 0.1 mm 2 mps 701 mmHg 84%
    22:00 +20°C° 0 mm 2 mps 701 mmHg 84%
    23:00 +21°C° 0 mm 1 mps 700 mmHg 84%

    25 June, Monday

    Time Temperature Precipitation Wind Pressure Humidity
    00:00 +20°C° 0 mm 1 mps 700 mmHg 84%
    01:00 +20°C° 0 mm 1 mps 700 mmHg 82%
    02:00 +20°C° 0 mm 1 mps 700 mmHg 80%
    03:00 +19°C° 0 mm 1 mps 700 mmHg 78%
    04:00 +20°C° 0 mm 1 mps 700 mmHg 75%
    05:00 +21°C° 0 mm 1 mps 701 mmHg 71%
    06:00 +22°C° 0 mm 1 mps 701 mmHg 67%
    07:00 +25°C° 0 mm 1 mps 701 mmHg 59%
    08:00 +27°C° 0 mm 2 mps 701 mmHg 51%
    09:00 +29°C° 0 mm 3 mps 701 mmHg 42%
    10:00 +31°C° 0 mm 3 mps 701 mmHg 40%
    11:00 +33°C° 0 mm 4 mps 701 mmHg 37%
    12:00 +34°C° 0 mm 4 mps 700 mmHg 34%
    13:00 +34°C° 0 mm 4 mps 700 mmHg 34%
    14:00 +35°C° 0 mm 4 mps 700 mmHg 33%
    15:00 +35°C° 0 mm 4 mps 700 mmHg 33%
    16:00 +34°C° 0 mm 3 mps 700 mmHg 36%
    17:00 +33°C° 0 mm 3 mps 700 mmHg 40%
    18:00 +31°C° 0 mm 3 mps 700 mmHg 43%
    19:00 +29°C° 0 mm 2 mps 700 mmHg 50%
    20:00 +26°C° 0 mm 2 mps 700 mmHg 58%
    21:00 +23°C° 0 mm 2 mps 700 mmHg 65%
    22:00 +22°C° 0 mm 1 mps 700 mmHg 64%
    23:00 +22°C° 0 mm 1 mps 700 mmHg 63%
    Show more